Time,TemperatureF,DewpointF,PressureIn,WindDirection,WindDirectionDegrees,WindSpeedMPH,WindSpeedGustMPH,Humidity,HourlyPrecipIn,Conditions,Clouds,dailyrainin,SoftwareType,DateUTC
2013-03-05 00:00:00,16.5,11.7,30.35,SE,129,1.0,1.0,81,0.00,,,0.00,WUHU216DAVISVP2,2013-03-05 07:00:00,
2013-03-05 00:05:00,16.2,11.4,30.35,SE,130,0.0,1.0,81,0.00,,,0.00,WUHU216DAVISVP2,2013-03-05 07:05:00,
2013-03-05 00:10:00,16.0,11.5,30.35,SSW,204,0.0,1.0,82,0.00,,,0.00,WUHU216DAVISVP2,2013-03-05 07:10:00,
2013-03-05 00:15:00,15.8,11.3,30.35,SSW,203,0.0,1.0,82,0.00,,,0.00,WUHU216DAVISVP2,2013-03-05 07:15:00,
2013-03-05 00:20:00,15.6,11.1,30.35,SSW,204,0.0,1.0,82,0.00,,,0.00,WUHU216DAVISVP2,2013-03-05 07:20:00,
2013-03-05 00:25:00,15.4,11.1,30.36,SSW,203,0.0,1.0,83,0.00,,,0.00,WUHU216DAVISVP2,2013-03-05 07:25:00,
2013-03-05 00:30:00,15.3,11.0,30.36,SSW,204,0.0,0.0,83,0.00,,,0.00,WUHU216DAVISVP2,2013-03-05 07:30:00,
2013-03-05 00:35:00,15.4,11.4,30.36,SSW,203,0.0,0.0,84,0.00,,,0.00,WUHU216DAVISVP2,2013-03-05 07:35:00,
2013-03-05 00:40:00,15.5,11.3,30.37,SSW,204,0.0,0.0,83,0.00,,,0.00,WUHU216DAVISVP2,2013-03-05 07:40:00,
2013-03-05 00:45:00,15.5,11.5,30.37,SSW,204,0.0,0.0,84,0.00,,,0.00,WUHU216DAVISVP2,2013-03-05 07:45:00,
2013-03-05 00:50:00,15.3,11.1,30.37,SSW,204,0.0,0.0,83,0.00,,,0.00,WUHU216DAVISVP2,2013-03-05 07:50:00,
2013-03-05 00:55:00,14.9,10.9,30.38,SSW,204,0.0,0.0,84,0.00,,,0.00,WUHU216DAVISVP2,2013-03-05 07:55:00,
2013-03-05 01:00:00,14.7,10.7,30.38,SSW,204,0.0,0.0,84,0.00,,,0.00,WUHU216DAVISVP2,2013-03-05 08:00:00,
2013-03-05 01:05:00,14.6,10.6,30.38,SSE,150,0.0,0.0,84,0.00,,,0.00,WUHU216DAVISVP2,2013-03-05 08:05:00,
2013-03-05 01:10:00,14.4,10.4,30.38,SE,145,1.0,1.0,84,0.00,,,0.00,WUHU216DAVISVP2,2013-03-05 08:10:00,
2013-03-05 01:15:00,14.4,10.4,30.39,ESE,115,0.0,1.0,84,0.00,,,0.00,WUHU216DAVISVP2,2013-03-05 08:15:00,
2013-03-05 01:20:00,14.5,10.5,30.39,ESE,116,0.0,1.0,84,0.00,,,0.00,WUHU216DAVISVP2,2013-03-05 08:20:00,
2013-03-05 01:25:00,14.4,10.4,30.39,ESE,116,0.0,1.0,84,0.00,,,0.00,WUHU216DAVISVP2,2013-03-05 08:25:00,
2013-03-05 01:30:00,14.2,10.5,30.40,ESE,116,0.0,1.0,85,0.00,,,0.00,WUHU216DAVISVP2,2013-03-05 08:30:00,
2013-03-05 01:35:00,14.3,10.6,30.40,ESE,116,0.0,0.0,85,0.00,,,0.00,WUHU216DAVISVP2,2013-03-05 08:35:00,
2013-03-05 01:40:00,14.3,10.6,30.40,ESE,115,1.0,1.0,85,0.00,,,0.00,WUHU216DAVISVP2,2013-03-05 08:40:00,
2013-03-05 01:45:00,14.1,10.4,30.40,ESE,115,0.0,1.0,85,0.00,,,0.00,WUHU216DAVISVP2,2013-03-05 08:45:00,
2013-03-05 01:50:00,13.9,10.2,30.40,ESE,116,0.0,1.0,85,0.00,,,0.00,WUHU216DAVISVP2,2013-03-05 08:50:00,
2013-03-05 01:55:00,13.7,9.7,30.40,SE,141,1.0,1.0,84,0.00,,,0.00,WUHU216DAVISVP2,2013-03-05 08:55:00,
2013-03-05 02:00:00,13.6,9.4,30.40,South,171,1.0,1.0,83,0.00,,,0.00,WUHU216DAVISVP2,2013-03-05 09:00:00,
2013-03-05 02:05:00,13.5,8.7,30.40,East,79,0.0,1.0,81,0.00,,,0.00,WUHU216DAVISVP2,2013-03-05 09:05:00,
2013-03-05 02:10:00,13.4,8.7,30.40,East,96,0.0,1.0,81,0.00,,,0.00,WUHU216DAVISVP2,2013-03-05 09:10:00,
2013-03-05 02:15:00,13.3,8.6,30.40,ENE,77,1.0,1.0,81,0.00,,,0.00,WUHU216DAVISVP2,2013-03-05 09:15:00,
2013-03-05 02:20:00,13.3,8.3,30.40,SSW,192,0.0,1.0,80,0.00,,,0.00,WUHU216DAVISVP2,2013-03-05 09:20:00,
2013-03-05 02:25:00,13.2,8.2,30.39,SSE,155,0.0,1.0,80,0.00,,,0.00,WUHU216DAVISVP2,2013-03-05 09:25:00,
2013-03-05 02:30:00,13.0,8.0,30.39,SSE,155,0.0,1.0,80,0.00,,,0.00,WUHU216DAVISVP2,2013-03-05 09:30:00,
2013-03-05 02:35:00,13.1,8.1,30.39,ESE,105,1.0,1.0,80,0.00,,,0.00,WUHU216DAVISVP2,2013-03-05 09:35:00,
2013-03-05 02:40:00,13.1,8.1,30.39,East,101,1.0,1.0,80,0.00,,,0.00,WUHU216DAVISVP2,2013-03-05 09:40:00,
2013-03-05 02:45:00,13.0,8.0,30.39,ESE,108,0.0,1.0,80,0.00,,,0.00,WUHU216DAVISVP2,2013-03-05 09:45:00,
2013-03-05 02:50:00,12.8,7.8,30.39,ESE,108,0.0,1.0,80,0.00,,,0.00,WUHU216DAVISVP2,2013-03-05 09:50:00,
2013-03-05 02:55:00,12.7,8.0,30.39,ESE,108,0.0,1.0,81,0.00,,,0.00,WUHU216DAVISVP2,2013-03-05 09:55:00,
2013-03-05 03:00:00,12.6,7.9,30.39,ESE,108,0.0,1.0,81,0.00,,,0.00,WUHU216DAVISVP2,2013-03-05 10:00:00,
2013-03-05 03:05:00,12.5,8.0,30.39,ESE,108,0.0,0.0,82,0.00,,,0.00,WUHU216DAVISVP2,2013-03-05 10:05:00,
2013-03-05 03:10:00,12.6,8.1,30.40,ESE,110,1.0,1.0,82,0.00,,,0.00,WUHU216DAVISVP2,2013-03-05 10:10:00,
2013-03-05 03:15:00,12.4,7.7,30.40,ESE,117,0.0,1.0,81,0.00,,,0.00,WUHU216DAVISVP2,2013-03-05 10:15:00,
2013-03-05 03:20:00,12.4,7.7,30.39,ESE,117,0.0,1.0,81,0.00,,,0.00,WUHU216DAVISVP2,2013-03-05 10:20:00,
2013-03-05 03:25:00,12.4,7.7,30.39,ESE,117,1.0,1.0,81,0.00,,,0.00,WUHU216DAVISVP2,2013-03-05 10:25:00,
2013-03-05 03:30:00,12.4,7.4,30.39,ESE,117,0.0,1.0,80,0.00,,,0.00,WUHU216DAVISVP2,2013-03-05 10:30:00,
2013-03-05 03:35:00,12.1,7.1,30.40,ESE,117,0.0,1.0,80,0.00,,,0.00,WUHU216DAVISVP2,2013-03-05 10:35:00,
2013-03-05 03:40:00,12.0,6.7,30.39,East,94,1.0,1.0,79,0.00,,,0.00,WUHU216DAVISVP2,2013-03-05 10:40:00,
2013-03-05 03:45:00,11.9,6.6,30.40,SSW,196,0.0,1.0,79,0.00,,,0.00,WUHU216DAVISVP2,2013-03-05 10:45:00,
2013-03-05 03:50:00,11.9,6.6,30.40,SSW,196,0.0,1.0,79,0.00,,,0.00,WUHU216DAVISVP2,2013-03-05 10:50:00,
2013-03-05 03:55:00,11.7,6.4,30.40,SSW,196,0.0,1.0,79,0.00,,,0.00,WUHU216DAVISVP2,2013-03-05 10:55:00,
2013-03-05 04:00:00,11.7,6.4,30.40,SSE,161,1.0,1.0,79,0.00,,,0.00,WUHU216DAVISVP2,2013-03-05 11:00:00,
2013-03-05 04:05:00,11.7,6.2,30.41,East,94,1.0,1.0,78,0.00,,,0.00,WUHU216DAVISVP2,2013-03-05 11:05:00,
2013-03-05 04:10:00,11.9,6.4,30.42,East,96,0.0,1.0,78,0.00,,,0.00,WUHU216DAVISVP2,2013-03-05 11:10:00,
2013-03-05 04:15:00,11.7,6.2,30.42,SSE,157,0.0,1.0,78,0.00,,,0.00,WUHU216DAVISVP2,2013-03-05 11:15:00,
2013-03-05 04:20:00,11.5,6.0,30.42,SSE,157,0.0,1.0,78,0.00,,,0.00,WUHU216DAVISVP2,2013-03-05 11:20:00,
2013-03-05 04:25:00,11.4,6.2,30.42,SSE,157,0.0,0.0,79,0.00,,,0.00,WUHU216DAVISVP2,2013-03-05 11:25:00,
2013-03-05 04:30:00,11.3,6.1,30.42,SSE,157,0.0,0.0,79,0.00,,,0.00,WUHU216DAVISVP2,2013-03-05 11:30:00,
2013-03-05 04:35:00,11.0,6.0,30.43,SSE,157,0.0,0.0,80,0.00,,,0.00,WUHU216DAVISVP2,2013-03-05 11:35:00,
2013-03-05 04:40:00,10.8,6.1,30.43,SSE,157,0.0,0.0,81,0.00,,,0.00,WUHU216DAVISVP2,2013-03-05 11:40:00,
2013-03-05 04:45:00,10.7,6.3,30.43,SSE,157,0.0,0.0,82,0.00,,,0.00,WUHU216DAVISVP2,2013-03-05 11:45:00,
2013-03-05 04:50:00,10.6,6.2,30.43,SSE,157,0.0,0.0,82,0.00,,,0.00,WUHU216DAVISVP2,2013-03-05 11:50:00,
2013-03-05 04:55:00,10.6,6.5,30.43,SSE,157,0.0,0.0,83,0.00,,,0.00,WUHU216DAVISVP2,2013-03-05 11:55:00,
2013-03-05 05:00:00,10.7,6.8,30.44,SSE,157,0.0,0.0,84,0.00,,,0.00,WUHU216DAVISVP2,2013-03-05 12:00:00,
2013-03-05 05:05:00,10.7,6.6,30.44,SSE,157,0.0,0.0,83,0.00,,,0.00,WUHU216DAVISVP2,2013-03-05 12:05:00,
2013-03-05 05:10:00,10.4,6.3,30.44,SSE,157,0.0,0.0,83,0.00,,,0.00,WUHU216DAVISVP2,2013-03-05 12:10:00,
2013-03-05 05:15:00,10.5,6.9,30.44,SSE,157,0.0,0.0,85,0.00,,,0.00,WUHU216DAVISVP2,2013-03-05 12:15:00,
2013-03-05 05:20:00,10.5,6.9,30.44,SSE,157,0.0,0.0,85,0.00,,,0.00,WUHU216DAVISVP2,2013-03-05 12:20:00,
2013-03-05 05:25:00,10.3,6.7,30.44,SSE,157,0.0,0.0,85,0.00,,,0.00,WUHU216DAVISVP2,2013-03-05 12:25:00,
2013-03-05 05:30:00,10.1,6.5,30.44,SSE,157,0.0,0.0,85,0.00,,,0.00,WUHU216DAVISVP2,2013-03-05 12:30:00,
2013-03-05 05:35:00,10.0,6.6,30.44,SSE,157,0.0,0.0,86,0.00,,,0.00,WUHU216DAVISVP2,2013-03-05 12:35:00,
2013-03-05 05:40:00,9.9,6.5,30.45,SSE,157,0.0,0.0,86,0.00,,,0.00,WUHU216DAVISVP2,2013-03-05 12:40:00,
2013-03-05 05:45:00,9.8,6.7,30.45,SSE,157,0.0,0.0,87,0.00,,,0.00,WUHU216DAVISVP2,2013-03-05 12:45:00,
2013-03-05 05:50:00,10.0,6.9,30.45,SSE,164,0.0,0.0,87,0.00,,,0.00,WUHU216DAVISVP2,2013-03-05 12:50:00,
2013-03-05 05:55:00,10.1,6.7,30.45,SSE,164,0.0,0.0,86,0.00,,,0.00,WUHU216DAVISVP2,2013-03-05 12:55:00,
2013-03-05 06:00:00,10.1,6.7,30.45,SSE,163,0.0,0.0,86,0.00,,,0.00,WUHU216DAVISVP2,2013-03-05 13:00:00,
2013-03-05 06:05:00,10.0,6.6,30.46,SSE,163,0.0,0.0,86,0.00,,,0.00,WUHU216DAVISVP2,2013-03-05 13:05:00,
2013-03-05 06:10:00,10.1,6.7,30.46,SW,218,1.0,1.0,86,0.00,,,0.00,WUHU216DAVISVP2,2013-03-05 13:10:00,
2013-03-05 06:15:00,10.2,6.6,30.46,SSW,200,0.0,1.0,85,0.00,,,0.00,WUHU216DAVISVP2,2013-03-05 13:15:00,
2013-03-05 06:20:00,10.1,6.5,30.46,SSW,200,0.0,1.0,85,0.00,,,0.00,WUHU216DAVISVP2,2013-03-05 13:20:00,
2013-03-05 06:25:00,10.1,6.5,30.46,SSW,200,0.0,1.0,85,0.00,,,0.00,WUHU216DAVISVP2,2013-03-05 13:25:00,
2013-03-05 06:30:00,10.0,6.4,30.46,SSW,200,0.0,0.0,85,0.00,,,0.00,WUHU216DAVISVP2,2013-03-05 13:30:00,
2013-03-05 06:35:00,9.9,6.5,30.46,SSW,200,0.0,0.0,86,0.00,,,0.00,WUHU216DAVISVP2,2013-03-05 13:35:00,
2013-03-05 06:40:00,10.2,6.8,30.46,South,186,0.0,0.0,86,0.00,,,0.00,WUHU216DAVISVP2,2013-03-05 13:40:00,
2013-03-05 06:45:00,10.4,7.0,30.46,South,186,0.0,0.0,86,0.00,,,0.00,WUHU216DAVISVP2,2013-03-05 13:45:00,
2013-03-05 06:50:00,10.6,7.0,30.47,SE,138,1.0,1.0,85,0.00,,,0.00,WUHU216DAVISVP2,2013-03-05 13:50:00,
2013-03-05 06:55:00,10.9,7.0,30.47,SSE,155,0.0,1.0,84,0.00,,,0.00,WUHU216DAVISVP2,2013-03-05 13:55:00,
2013-03-05 07:00:00,11.2,7.3,30.47,SSE,153,0.0,1.0,84,0.00,,,0.00,WUHU216DAVISVP2,2013-03-05 14:00:00,
2013-03-05 07:05:00,11.7,7.5,30.47,SSE,153,0.0,1.0,83,0.00,,,0.00,WUHU216DAVISVP2,2013-03-05 14:05:00,
2013-03-05 07:10:00,12.2,7.7,30.48,SSE,153,0.0,1.0,82,0.00,,,0.00,WUHU216DAVISVP2,2013-03-05 14:10:00,
2013-03-05 07:15:00,12.6,7.9,30.47,SSE,153,0.0,0.0,81,0.00,,,0.00,WUHU216DAVISVP2,2013-03-05 14:15:00,
2013-03-05 07:20:00,13.2,8.2,30.47,SSW,213,0.0,1.0,80,0.00,,,0.00,WUHU216DAVISVP2,2013-03-05 14:20:00,
2013-03-05 07:25:00,14.4,9.1,30.47,South,182,0.0,1.0,79,0.00,,,0.00,WUHU216DAVISVP2,2013-03-05 14:25:00,
2013-03-05 07:30:00,16.0,9.8,30.48,South,181,0.0,1.0,76,0.00,,,0.00,WUHU216DAVISVP2,2013-03-05 14:30:00,
2013-03-05 07:35:00,17.6,10.4,30.48,South,181,0.0,1.0,73,0.00,,,0.00,WUHU216DAVISVP2,2013-03-05 14:35:00,
2013-03-05 07:40:00,17.8,10.0,30.48,SE,141,0.0,1.0,71,0.00,,,0.00,WUHU216DAVISVP2,2013-03-05 14:40:00,
2013-03-05 07:45:00,18.0,9.9,30.47,SSW,194,1.0,1.0,70,0.00,,,0.00,WUHU216DAVISVP2,2013-03-05 14:45:00,
2013-03-05 07:50:00,19.0,10.6,30.47,SSE,162,1.0,1.0,69,0.00,,,0.00,WUHU216DAVISVP2,2013-03-05 14:50:00,
2013-03-05 07:55:00,20.1,10.9,30.48,South,182,0.0,1.0,67,0.00,,,0.00,WUHU216DAVISVP2,2013-03-05 14:55:00,
2013-03-05 08:00:00,21.1,11.2,30.48,SSE,165,1.0,1.0,65,0.00,,,0.00,WUHU216DAVISVP2,2013-03-05 15:00:00,
2013-03-05 08:05:00,21.5,11.3,30.48,SW,225,1.0,1.0,64,0.00,,,0.00,WUHU216DAVISVP2,2013-03-05 15:05:00,
2013-03-05 08:10:00,22.1,11.8,30.48,South,191,0.0,1.0,64,0.00,,,0.00,WUHU216DAVISVP2,2013-03-05 15:10:00,
2013-03-05 08:15:00,23.5,12.1,30.48,South,188,1.0,1.0,61,0.00,,,0.00,WUHU216DAVISVP2,2013-03-05 15:15:00,
2013-03-05 08:20:00,24.1,12.6,30.48,WSW,240,1.0,1.0,61,0.00,,,0.00,WUHU216DAVISVP2,2013-03-05 15:20:00,
2013-03-05 08:25:00,24.4,12.1,30.48,SSW,204,1.0,1.0,59,0.00,,,0.00,WUHU216DAVISVP2,2013-03-05 15:25:00,
2013-03-05 08:30:00,25.1,12.8,30.48,SSW,194,0.0,1.0,59,0.00,,,0.00,WUHU216DAVISVP2,2013-03-05 15:30:00,
2013-03-05 08:35:00,25.8,13.5,30.48,WSW,255,1.0,1.0,59,0.00,,,0.00,WUHU216DAVISVP2,2013-03-05 15:35:00,
2013-03-05 08:40:00,26.6,13.0,30.48,South,181,0.0,3.0,56,0.00,,,0.00,WUHU216DAVISVP2,2013-03-05 15:40:00,
2013-03-05 08:45:00,27.9,14.2,30.48,ESE,103,1.0,3.0,56,0.00,,,0.00,WUHU216DAVISVP2,2013-03-05 15:45:00,
2013-03-05 08:50:00,28.1,13.1,30.48,SW,226,1.0,3.0,53,0.00,,,0.00,WUHU216DAVISVP2,2013-03-05 15:50:00,
2013-03-05 08:55:00,28.7,13.2,30.48,SSW,211,1.0,3.0,52,0.00,,,0.00,WUHU216DAVISVP2,2013-03-05 15:55:00,
2013-03-05 09:00:00,28.9,13.4,30.47,WSW,247,1.0,2.0,52,0.00,,,0.00,WUHU216DAVISVP2,2013-03-05 16:00:00,
2013-03-05 09:05:00,29.8,13.8,30.47,SSW,202,0.0,2.0,51,0.00,,,0.00,WUHU216DAVISVP2,2013-03-05 16:05:00,
2013-03-05 09:10:00,30.9,14.0,30.47,NE,50,1.3,2.0,49,0.00,,,0.00,WUHU216DAVISVP2,2013-03-05 16:10:00,
2013-03-05 09:15:00,30.6,12.6,30.47,ESE,115,1.1,2.0,47,0.00,,,0.00,WUHU216DAVISVP2,2013-03-05 16:15:00,
2013-03-05 09:20:00,31.0,13.5,30.47,SSW,197,0.0,2.0,48,0.00,,,0.00,WUHU216DAVISVP2,2013-03-05 16:20:00,
2013-03-05 09:25:00,31.5,13.5,30.46,ESE,115,1.1,2.0,47,0.00,,,0.00,WUHU216DAVISVP2,2013-03-05 16:25:00,
2013-03-05 09:30:00,31.6,12.5,30.46,East,100,1.0,2.0,45,0.00,,,0.00,WUHU216DAVISVP2,2013-03-05 16:30:00,
2013-03-05 09:35:00,32.5,13.9,30.46,East,95,1.0,2.0,46,0.00,,,0.00,WUHU216DAVISVP2,2013-03-05 16:35:00,
2013-03-05 09:40:00,32.4,13.8,30.46,SSW,195,1.2,2.0,46,0.00,,,0.00,WUHU216DAVISVP2,2013-03-05 16:40:00,
2013-03-05 09:45:00,32.4,13.8,30.46,NNE,18,1.4,2.0,46,0.00,,,0.00,WUHU216DAVISVP2,2013-03-05 16:45:00,
2013-03-05 09:50:00,32.5,14.4,30.45,North,358,1.0,2.0,47,0.00,,,0.00,WUHU216DAVISVP2,2013-03-05 16:50:00,
2013-03-05 09:55:00,32.9,14.2,30.45,ESE,103,1.2,2.0,46,0.00,,,0.00,WUHU216DAVISVP2,2013-03-05 16:55:00,
2013-03-05 10:00:00,32.9,14.2,30.45,East,101,1.5,3.0,46,0.00,,,0.00,WUHU216DAVISVP2,2013-03-05 17:00:00,
2013-03-05 10:05:00,33.5,15.3,30.45,NNE,32,1.7,4.0,47,0.00,,,0.00,WUHU216DAVISVP2,2013-03-05 17:05:00,
2013-03-05 10:10:00,33.6,14.9,30.45,NNE,13,1.7,6.0,46,0.00,,,0.00,WUHU216DAVISVP2,2013-03-05 17:10:00,
2013-03-05 10:15:00,34.3,15.0,30.45,East,87,2.3,6.0,45,0.00,,,0.00,WUHU216DAVISVP2,2013-03-05 17:15:00,
2013-03-05 10:20:00,34.8,16.0,30.45,East,89,1.0,6.0,46,0.00,,,0.00,WUHU216DAVISVP2,2013-03-05 17:20:00,
2013-03-05 10:25:00,34.8,14.9,30.45,NNE,26,1.3,6.0,44,0.00,,,0.00,WUHU216DAVISVP2,2013-03-05 17:25:00,
2013-03-05 10:30:00,35.1,14.7,30.45,SSE,149,1.0,4.0,43,0.00,,,0.00,WUHU216DAVISVP2,2013-03-05 17:30:00,
2013-03-05 10:35:00,35.7,15.2,30.44,WNW,299,1.5,4.0,43,0.00,,,0.00,WUHU216DAVISVP2,2013-03-05 17:35:00,
2013-03-05 10:40:00,35.1,15.2,30.45,WNW,290,3.0,4.0,44,0.00,,,0.00,WUHU216DAVISVP2,2013-03-05 17:40:00,
2013-03-05 10:45:00,35.2,14.8,30.44,North,356,1.4,4.0,43,0.00,,,0.00,WUHU216DAVISVP2,2013-03-05 17:45:00,
2013-03-05 10:50:00,36.3,15.8,30.44,SW,215,1.0,4.0,43,0.00,,,0.00,WUHU216DAVISVP2,2013-03-05 17:50:00,
2013-03-05 10:55:00,36.8,14.5,30.44,NNW,346,1.2,4.0,40,0.01,,,0.01,WUHU216DAVISVP2,2013-03-05 17:55:00,
2013-03-05 11:00:00,37.0,15.3,30.44,NW,316,2.0,4.0,41,0.01,,,0.01,WUHU216DAVISVP2,2013-03-05 18:00:00,
2013-03-05 11:05:00,37.0,17.0,30.44,North,354,3.5,10.0,44,0.01,,,0.01,WUHU216DAVISVP2,2013-03-05 18:05:00,
2013-03-05 11:10:00,36.0,17.1,30.44,NNW,331,2.7,10.0,46,0.02,,,0.02,WUHU216DAVISVP2,2013-03-05 18:10:00,
2013-03-05 11:15:00,35.2,16.4,30.44,NW,323,5.0,10.0,46,0.02,,,0.02,WUHU216DAVISVP2,2013-03-05 18:15:00,
2013-03-05 11:20:00,34.7,16.4,30.44,NNW,338,1.9,10.0,47,0.02,,,0.02,WUHU216DAVISVP2,2013-03-05 18:20:00,
2013-03-05 11:25:00,35.2,15.8,30.44,NNW,346,3.0,9.0,45,0.02,,,0.02,WUHU216DAVISVP2,2013-03-05 18:25:00,
2013-03-05 11:30:00,35.0,16.2,30.44,NNE,24,5.6,11.0,46,0.03,,,0.03,WUHU216DAVISVP2,2013-03-05 18:30:00,
2013-03-05 11:35:00,35.3,17.0,30.44,North,11,6.0,11.0,47,0.03,,,0.03,WUHU216DAVISVP2,2013-03-05 18:35:00,
2013-03-05 11:40:00,35.4,16.5,30.44,ENE,58,3.0,11.0,46,0.03,,,0.03,WUHU216DAVISVP2,2013-03-05 18:40:00,
2013-03-05 11:45:00,35.4,17.1,30.44,NNW,336,3.0,11.0,47,0.03,,,0.03,WUHU216DAVISVP2,2013-03-05 18:45:00,
2013-03-05 11:50:00,35.0,17.2,30.44,North,354,3.0,8.0,48,0.03,,,0.03,WUHU216DAVISVP2,2013-03-05 18:50:00,
2013-03-05 11:55:00,34.8,17.0,30.43,NW,311,4.7,8.0,48,0.02,,,0.03,WUHU216DAVISVP2,2013-03-05 18:55:00,
2013-03-05 12:00:00,34.8,17.5,30.43,NNW,348,3.3,8.0,49,0.03,,,0.04,WUHU216DAVISVP2,2013-03-05 19:00:00,
2013-03-05 12:05:00,35.0,18.2,30.43,NW,322,4.1,9.0,50,0.03,,,0.04,WUHU216DAVISVP2,2013-03-05 19:05:00,
2013-03-05 12:10:00,35.8,18.4,30.42,NW,311,3.0,9.0,49,0.02,,,0.04,WUHU216DAVISVP2,2013-03-05 19:10:00,
2013-03-05 12:15:00,35.7,17.8,30.43,NNE,29,3.3,9.0,48,0.02,,,0.04,WUHU216DAVISVP2,2013-03-05 19:15:00,
2013-03-05 12:20:00,35.5,18.1,30.43,NW,319,2.4,9.0,49,0.02,,,0.04,WUHU216DAVISVP2,2013-03-05 19:20:00,
2013-03-05 12:25:00,35.1,18.3,30.43,North,2,8.0,9.0,50,0.02,,,0.04,WUHU216DAVISVP2,2013-03-05 19:25:00,
2013-03-05 12:30:00,35.1,18.3,30.43,North,7,2.1,11.0,50,0.01,,,0.04,WUHU216DAVISVP2,2013-03-05 19:30:00,
2013-03-05 12:35:00,35.3,18.0,30.42,ENE,71,5.0,11.0,49,0.01,,,0.04,WUHU216DAVISVP2,2013-03-05 19:35:00,
2013-03-05 12:40:00,35.7,17.8,30.42,NW,315,3.6,11.0,48,0.01,,,0.04,WUHU216DAVISVP2,2013-03-05 19:40:00,
2013-03-05 12:45:00,35.7,18.3,30.42,NW,314,4.0,11.0,49,0.01,,,0.04,WUHU216DAVISVP2,2013-03-05 19:45:00,
2013-03-05 12:50:00,35.7,18.3,30.42,North,357,5.0,8.0,49,0.01,,,0.04,WUHU216DAVISVP2,2013-03-05 19:50:00,
2013-03-05 12:55:00,36.3,18.4,30.41,NNW,332,2.6,8.0,48,0.01,,,0.04,WUHU216DAVISVP2,2013-03-05 19:55:00,
2013-03-05 13:00:00,36.6,18.2,30.42,NNW,327,4.0,7.0,47,0.00,,,0.04,WUHU216DAVISVP2,2013-03-05 20:00:00,
2013-03-05 13:05:00,36.6,18.7,30.41,North,359,4.0,7.0,48,0.00,,,0.04,WUHU216DAVISVP2,2013-03-05 20:05:00,
2013-03-05 13:10:00,36.2,18.3,30.41,NW,321,6.0,9.0,48,0.00,,,0.04,WUHU216DAVISVP2,2013-03-05 20:10:00,
2013-03-05 13:15:00,36.2,18.8,30.41,NNE,23,2.4,9.0,49,0.00,,,0.04,WUHU216DAVISVP2,2013-03-05 20:15:00,
2013-03-05 13:20:00,36.7,18.8,30.40,NNW,331,1.4,9.0,48,0.00,,,0.04,WUHU216DAVISVP2,2013-03-05 20:20:00,
2013-03-05 13:25:00,37.3,18.3,30.40,ENE,63,4.0,9.0,46,0.00,,,0.04,WUHU216DAVISVP2,2013-03-05 20:25:00,
2013-03-05 13:30:00,37.1,18.6,30.40,WNW,303,2.4,6.0,47,0.00,,,0.04,WUHU216DAVISVP2,2013-03-05 20:30:00,
2013-03-05 13:35:00,37.5,19.1,30.40,WNW,298,4.5,10.0,47,0.00,,,0.04,WUHU216DAVISVP2,2013-03-05 20:35:00,
2013-03-05 13:40:00,38.3,19.3,30.40,NW,318,1.8,10.0,46,0.00,,,0.04,WUHU216DAVISVP2,2013-03-05 20:40:00,
2013-03-05 13:45:00,38.3,19.3,30.40,NNE,14,2.0,10.0,46,0.00,,,0.04,WUHU216DAVISVP2,2013-03-05 20:45:00,
2013-03-05 13:50:00,38.6,19.1,30.40,NW,326,3.1,10.0,45,0.00,,,0.04,WUHU216DAVISVP2,2013-03-05 20:50:00,
2013-03-05 13:55:00,38.2,18.6,30.39,NW,309,4.0,9.0,45,0.00,,,0.04,WUHU216DAVISVP2,2013-03-05 20:55:00,
2013-03-05 14:00:00,37.8,18.7,30.39,NW,325,3.2,9.0,46,0.00,,,0.04,WUHU216DAVISVP2,2013-03-05 21:00:00,
2013-03-05 14:05:00,38.4,19.3,30.39,NNW,328,2.8,9.0,46,0.00,,,0.04,WUHU216DAVISVP2,2013-03-05 21:05:00,
2013-03-05 14:10:00,38.1,19.0,30.39,WNW,293,4.6,7.0,46,0.00,,,0.04,WUHU216DAVISVP2,2013-03-05 21:10:00,
2013-03-05 14:15:00,38.3,18.7,30.39,WNW,289,3.4,7.0,45,0.00,,,0.04,WUHU216DAVISVP2,2013-03-05 21:15:00,
2013-03-05 14:20:00,38.9,19.2,30.39,NW,322,1.4,7.0,45,0.00,,,0.04,WUHU216DAVISVP2,2013-03-05 21:20:00,
2013-03-05 14:25:00,38.8,18.6,30.39,NW,306,2.9,8.0,44,0.00,,,0.04,WUHU216DAVISVP2,2013-03-05 21:25:00,
2013-03-05 14:30:00,39.0,18.4,30.39,WNW,295,6.0,8.0,43,0.00,,,0.04,WUHU216DAVISVP2,2013-03-05 21:30:00,
2013-03-05 14:35:00,39.6,20.0,30.38,NNW,340,1.2,8.0,45,0.00,,,0.04,WUHU216DAVISVP2,2013-03-05 21:35:00,
2013-03-05 14:40:00,39.7,19.4,30.38,West,276,3.0,8.0,44,0.00,,,0.04,WUHU216DAVISVP2,2013-03-05 21:40:00,
2013-03-05 14:45:00,39.7,19.4,30.38,NW,314,1.6,8.0,44,0.00,,,0.04,WUHU216DAVISVP2,2013-03-05 21:45:00,
2013-03-05 14:50:00,40.1,19.8,30.37,NE,56,1.0,5.0,44,0.00,,,0.04,WUHU216DAVISVP2,2013-03-05 21:50:00,
2013-03-05 14:55:00,41.1,19.6,30.38,NNW,334,2.0,5.0,42,0.00,,,0.04,WUHU216DAVISVP2,2013-03-05 21:55:00,
2013-03-05 15:00:00,41.2,19.7,30.38,WNW,301,5.0,5.0,42,0.00,,,0.04,WUHU216DAVISVP2,2013-03-05 22:00:00,
2013-03-05 15:05:00,41.1,20.3,30.38,ENE,76,2.0,6.0,43,0.00,,,0.04,WUHU216DAVISVP2,2013-03-05 22:05:00,
2013-03-05 15:10:00,41.4,20.4,30.38,NW,324,1.3,6.0,43,0.00,,,0.04,WUHU216DAVISVP2,2013-03-05 22:10:00,
2013-03-05 15:15:00,41.6,20.0,30.38,WNW,285,4.0,6.0,42,0.00,,,0.04,WUHU216DAVISVP2,2013-03-05 22:15:00,
2013-03-05 15:20:00,41.3,19.8,30.37,NNW,327,1.9,6.0,42,0.00,,,0.04,WUHU216DAVISVP2,2013-03-05 22:20:00,
2013-03-05 15:25:00,41.5,19.9,30.37,WNW,303,1.5,6.0,42,0.00,,,0.04,WUHU216DAVISVP2,2013-03-05 22:25:00,
2013-03-05 15:30:00,41.6,20.6,30.37,NW,324,1.9,6.0,43,0.00,,,0.04,WUHU216DAVISVP2,2013-03-05 22:30:00,
2013-03-05 15:35:00,41.6,20.2,30.37,NNW,344,2.3,6.0,42,0.00,,,0.04,WUHU216DAVISVP2,2013-03-05 22:35:00,
2013-03-05 15:40:00,41.7,20.1,30.37,NNE,13,1.7,6.0,42,0.00,,,0.04,WUHU216DAVISVP2,2013-03-05 22:40:00,
2013-03-05 15:45:00,41.6,19.4,30.37,WNW,289,4.0,6.0,41,0.00,,,0.04,WUHU216DAVISVP2,2013-03-05 22:45:00,
2013-03-05 15:50:00,41.5,19.4,30.36,WNW,293,2.4,7.0,41,0.00,,,0.04,WUHU216DAVISVP2,2013-03-05 22:50:00,
2013-03-05 15:55:00,41.6,20.0,30.36,NNE,14,2.0,7.0,42,0.00,,,0.04,WUHU216DAVISVP2,2013-03-05 22:55:00,
2013-03-05 16:00:00,42.0,19.2,30.36,West,260,2.1,7.0,40,0.00,,,0.04,WUHU216DAVISVP2,2013-03-05 23:00:00,
2013-03-05 16:05:00,41.9,18.7,30.36,NNW,337,2.3,7.0,39,0.00,,,0.04,WUHU216DAVISVP2,2013-03-05 23:05:00,
2013-03-05 16:10:00,41.6,18.9,30.36,NNW,327,2.0,6.0,40,0.00,,,0.04,WUHU216DAVISVP2,2013-03-05 23:10:00,
2013-03-05 16:15:00,41.7,18.9,30.36,NW,323,3.0,6.0,40,0.00,,,0.04,WUHU216DAVISVP2,2013-03-05 23:15:00,
2013-03-05 16:20:00,41.9,19.1,30.36,NW,314,2.0,6.0,40,0.00,,,0.04,WUHU216DAVISVP2,2013-03-05 23:20:00,
2013-03-05 16:25:00,42.2,19.4,30.35,NNE,17,1.6,5.0,40,0.00,,,0.04,WUHU216DAVISVP2,2013-03-05 23:25:00,
2013-03-05 16:30:00,41.9,19.1,30.36,North,358,1.0,4.0,40,0.00,,,0.04,WUHU216DAVISVP2,2013-03-05 23:30:00,
2013-03-05 16:35:00,41.8,18.4,30.35,North,3,1.3,4.0,39,0.00,,,0.04,WUHU216DAVISVP2,2013-03-05 23:35:00,
2013-03-05 16:40:00,42.1,18.7,30.35,NNW,342,2.0,4.0,39,0.00,,,0.04,WUHU216DAVISVP2,2013-03-05 23:40:00,
2013-03-05 16:45:00,42.0,19.4,30.35,WNW,297,2.0,4.0,40,0.00,,,0.04,WUHU216DAVISVP2,2013-03-05 23:45:00,
2013-03-05 16:50:00,41.6,19.0,30.35,WNW,297,1.0,5.0,40,0.00,,,0.04,WUHU216DAVISVP2,2013-03-05 23:50:00,
2013-03-05 16:55:00,42.0,19.4,30.35,NW,319,0.0,5.0,40,0.00,,,0.04,WUHU216DAVISVP2,2013-03-05 23:55:00,
2013-03-05 17:00:00,41.9,19.3,30.35,WNW,300,2.0,5.0,40,0.00,,,0.04,WUHU216DAVISVP2,2013-03-06 00:00:00,
2013-03-05 17:05:00,41.6,19.0,30.35,NW,313,2.3,5.0,40,0.00,,,0.04,WUHU216DAVISVP2,2013-03-06 00:05:00,
2013-03-05 17:10:00,41.1,19.2,30.35,WNW,292,1.0,5.0,41,0.00,,,0.04,WUHU216DAVISVP2,2013-03-06 00:10:00,
2013-03-05 17:15:00,40.7,19.2,30.35,NE,38,1.1,5.0,42,0.00,,,0.04,WUHU216DAVISVP2,2013-03-06 00:15:00,
2013-03-05 17:20:00,40.4,18.9,30.35,NNW,327,1.2,5.0,42,0.00,,,0.04,WUHU216DAVISVP2,2013-03-06 00:20:00,
2013-03-05 17:25:00,40.3,19.4,30.35,NNW,337,1.0,3.0,43,0.00,,,0.04,WUHU216DAVISVP2,2013-03-06 00:25:00,
2013-03-05 17:30:00,39.9,19.0,30.35,NW,326,1.5,3.0,43,0.00,,,0.04,WUHU216DAVISVP2,2013-03-06 00:30:00,
2013-03-05 17:35:00,39.5,18.7,30.35,NNE,21,1.2,3.0,43,0.00,,,0.04,WUHU216DAVISVP2,2013-03-06 00:35:00,
2013-03-05 17:40:00,39.2,19.1,30.35,North,355,1.1,3.0,44,0.00,,,0.04,WUHU216DAVISVP2,2013-03-06 00:40:00,
2013-03-05 17:45:00,38.7,18.5,30.34,North,3,1.0,3.0,44,0.00,,,0.04,WUHU216DAVISVP2,2013-03-06 00:45:00,
2013-03-05 17:50:00,38.3,18.7,30.34,NNW,340,1.0,2.0,45,0.00,,,0.04,WUHU216DAVISVP2,2013-03-06 00:50:00,
2013-03-05 17:55:00,37.9,18.8,30.34,NNE,29,1.0,2.0,46,0.00,,,0.04,WUHU216DAVISVP2,2013-03-06 00:55:00,
2013-03-05 18:00:00,37.5,19.0,30.35,North,1,1.0,2.0,47,0.00,,,0.04,WUHU216DAVISVP2,2013-03-06 01:00:00,
2013-03-05 18:05:00,37.2,19.2,30.35,NNW,344,1.0,2.0,48,0.00,,,0.04,WUHU216DAVISVP2,2013-03-06 01:05:00,
2013-03-05 18:10:00,36.8,19.3,30.35,NNW,344,0.0,2.0,49,0.00,,,0.04,WUHU216DAVISVP2,2013-03-06 01:10:00,
2013-03-05 18:15:00,36.5,19.6,30.34,NNE,14,0.0,1.0,50,0.00,,,0.04,WUHU216DAVISVP2,2013-03-06 01:15:00,
2013-03-05 18:20:00,36.1,19.2,30.34,NNW,335,1.0,1.0,50,0.00,,,0.04,WUHU216DAVISVP2,2013-03-06 01:20:00,
2013-03-05 18:25:00,35.9,19.5,30.34,NW,308,1.0,2.0,51,0.00,,,0.04,WUHU216DAVISVP2,2013-03-06 01:25:00,
2013-03-05 18:30:00,35.7,19.8,30.34,NNW,337,1.3,2.0,52,0.00,,,0.04,WUHU216DAVISVP2,2013-03-06 01:30:00,
2013-03-05 18:35:00,35.5,19.6,30.34,NNW,346,1.0,2.0,52,0.00,,,0.04,WUHU216DAVISVP2,2013-03-06 01:35:00,
2013-03-05 18:40:00,35.2,19.8,30.34,North,4,1.0,2.0,53,0.00,,,0.04,WUHU216DAVISVP2,2013-03-06 01:40:00,
2013-03-05 18:45:00,34.8,19.8,30.34,North,11,0.0,2.0,54,0.00,,,0.04,WUHU216DAVISVP2,2013-03-06 01:45:00,
2013-03-05 18:50:00,34.5,20.0,30.34,North,10,1.0,1.0,55,0.00,,,0.04,WUHU216DAVISVP2,2013-03-06 01:50:00,
2013-03-05 18:55:00,34.3,19.8,30.34,North,357,1.0,1.0,55,0.00,,,0.04,WUHU216DAVISVP2,2013-03-06 01:55:00,
2013-03-05 19:00:00,34.2,20.1,30.34,North,6,1.0,1.0,56,0.00,,,0.04,WUHU216DAVISVP2,2013-03-06 02:00:00,
2013-03-05 19:05:00,34.1,20.1,30.34,NW,314,0.0,1.0,56,0.00,,,0.04,WUHU216DAVISVP2,2013-03-06 02:05:00,
2013-03-05 19:10:00,34.0,20.0,30.34,NW,323,0.0,1.0,56,0.00,,,0.04,WUHU216DAVISVP2,2013-03-06 02:10:00,
2013-03-05 19:15:00,33.8,20.2,30.34,WNW,294,0.0,1.0,57,0.00,,,0.04,WUHU216DAVISVP2,2013-03-06 02:15:00,
2013-03-05 19:20:00,33.5,19.9,30.34,North,353,1.0,2.0,57,0.00,,,0.04,WUHU216DAVISVP2,2013-03-06 02:20:00,
2013-03-05 19:25:00,33.4,19.8,30.33,NNW,336,1.1,2.0,57,0.00,,,0.04,WUHU216DAVISVP2,2013-03-06 02:25:00,
2013-03-05 19:30:00,33.2,19.6,30.33,North,358,0.0,2.0,57,0.00,,,0.04,WUHU216DAVISVP2,2013-03-06 02:30:00,
2013-03-05 19:35:00,33.0,19.9,30.33,North,351,0.0,2.0,58,0.00,,,0.04,WUHU216DAVISVP2,2013-03-06 02:35:00,
2013-03-05 19:40:00,32.8,19.7,30.34,NW,324,0.0,2.0,58,0.00,,,0.04,WUHU216DAVISVP2,2013-03-06 02:40:00,
2013-03-05 19:45:00,32.5,19.8,30.34,NW,324,0.0,1.0,59,0.00,,,0.04,WUHU216DAVISVP2,2013-03-06 02:45:00,
2013-03-05 19:51:00,32.1,19.8,30.33,NW,324,0.0,1.0,60,0.00,,,0.04,WUHU216DAVISVP2,2013-03-06 02:51:00,
2013-03-05 19:55:00,31.6,20.1,30.33,NW,324,0.0,1.0,62,0.00,,,0.04,WUHU216DAVISVP2,2013-03-06 02:55:00,
2013-03-05 20:00:00,31.2,19.7,30.33,NW,324,0.0,0.0,62,0.00,,,0.04,WUHU216DAVISVP2,2013-03-06 03:00:00,
2013-03-05 20:05:00,30.5,19.8,30.33,NW,324,0.0,0.0,64,0.00,,,0.04,WUHU216DAVISVP2,2013-03-06 03:05:00,
2013-03-05 20:10:00,30.3,20.0,30.33,NW,324,0.0,0.0,65,0.00,,,0.04,WUHU216DAVISVP2,2013-03-06 03:10:00,
2013-03-05 20:15:00,29.9,19.9,30.33,NW,324,0.0,0.0,66,0.00,,,0.04,WUHU216DAVISVP2,2013-03-06 03:15:00,
2013-03-05 20:20:00,29.4,19.8,30.33,NW,324,0.0,0.0,67,0.00,,,0.04,WUHU216DAVISVP2,2013-03-06 03:20:00,
2013-03-05 20:25:00,29.0,20.1,30.33,NW,324,0.0,0.0,69,0.00,,,0.04,WUHU216DAVISVP2,2013-03-06 03:25:00,
2013-03-05 20:30:00,28.4,19.9,30.33,NW,324,0.0,0.0,70,0.00,,,0.04,WUHU216DAVISVP2,2013-03-06 03:30:00,
2013-03-05 20:35:00,28.1,20.0,30.33,NW,324,0.0,0.0,71,0.00,,,0.04,WUHU216DAVISVP2,2013-03-06 03:35:00,
2013-03-05 20:40:00,28.1,20.2,30.33,NW,324,0.0,0.0,72,0.00,,,0.04,WUHU216DAVISVP2,2013-03-06 03:40:00,
2013-03-05 20:45:00,27.8,19.9,30.33,NW,324,0.0,0.0,72,0.00,,,0.04,WUHU216DAVISVP2,2013-03-06 03:45:00,
2013-03-05 20:50:00,27.8,20.3,30.33,NW,324,0.0,0.0,73,0.00,,,0.04,WUHU216DAVISVP2,2013-03-06 03:50:00,
2013-03-05 20:55:00,27.7,20.2,30.33,NW,324,0.0,0.0,73,0.00,,,0.04,WUHU216DAVISVP2,2013-03-06 03:55:00,
2013-03-05 21:00:00,27.5,20.3,30.33,NW,324,0.0,0.0,74,0.00,,,0.04,WUHU216DAVISVP2,2013-03-06 04:00:00,
2013-03-05 21:05:00,27.5,20.7,30.33,NW,324,0.0,0.0,75,0.00,,,0.04,WUHU216DAVISVP2,2013-03-06 04:05:00,
2013-03-05 21:10:00,27.7,20.5,30.34,NW,324,0.0,0.0,74,0.00,,,0.04,WUHU216DAVISVP2,2013-03-06 04:10:00,
2013-03-05 21:15:00,27.4,20.2,30.33,NW,324,0.0,0.0,74,0.00,,,0.04,WUHU216DAVISVP2,2013-03-06 04:15:00,
2013-03-05 21:20:00,27.1,20.0,30.33,NW,324,0.0,0.0,74,0.00,,,0.04,WUHU216DAVISVP2,2013-03-06 04:20:00,
2013-03-05 21:25:00,27.0,20.5,30.33,NW,324,0.0,0.0,76,0.00,,,0.04,WUHU216DAVISVP2,2013-03-06 04:25:00,
2013-03-05 21:30:00,27.1,20.6,30.33,NW,324,0.0,0.0,76,0.00,,,0.04,WUHU216DAVISVP2,2013-03-06 04:30:00,
2013-03-05 21:35:00,26.7,19.9,30.33,NW,324,0.0,0.0,75,0.00,,,0.04,WUHU216DAVISVP2,2013-03-06 04:35:00,
2013-03-05 21:40:00,26.6,20.4,30.33,NW,324,0.0,0.0,77,0.00,,,0.04,WUHU216DAVISVP2,2013-03-06 04:40:00,
2013-03-05 21:45:00,26.4,20.5,30.33,NW,324,0.0,0.0,78,0.00,,,0.04,WUHU216DAVISVP2,2013-03-06 04:45:00,
2013-03-05 21:50:00,26.3,20.7,30.33,NW,324,0.0,0.0,79,0.00,,,0.04,WUHU216DAVISVP2,2013-03-06 04:50:00,
2013-03-05 21:55:00,26.2,20.3,30.33,NW,324,0.0,0.0,78,0.00,,,0.04,WUHU216DAVISVP2,2013-03-06 04:55:00,
2013-03-05 22:00:00,26.0,20.4,30.33,NW,324,0.0,0.0,79,0.00,,,0.04,WUHU216DAVISVP2,2013-03-06 05:00:00,
2013-03-05 22:05:00,26.0,20.4,30.33,NW,324,0.0,0.0,79,0.00,,,0.04,WUHU216DAVISVP2,2013-03-06 05:05:00,
2013-03-05 22:10:00,26.1,20.5,30.33,NW,324,0.0,0.0,79,0.00,,,0.04,WUHU216DAVISVP2,2013-03-06 05:10:00,
2013-03-05 22:15:00,26.1,20.5,30.33,NW,324,0.0,0.0,79,0.00,,,0.04,WUHU216DAVISVP2,2013-03-06 05:15:00,
2013-03-05 22:20:00,26.0,20.4,30.33,NW,324,0.0,0.0,79,0.00,,,0.04,WUHU216DAVISVP2,2013-03-06 05:20:00,
2013-03-05 22:25:00,25.9,20.3,30.33,NW,324,0.0,0.0,79,0.00,,,0.04,WUHU216DAVISVP2,2013-03-06 05:25:00,
2013-03-05 22:30:00,25.8,20.2,30.33,NW,324,0.0,0.0,79,0.00,,,0.04,WUHU216DAVISVP2,2013-03-06 05:30:00,
2013-03-05 22:35:00,25.5,20.2,30.32,NW,324,0.0,0.0,80,0.00,,,0.04,WUHU216DAVISVP2,2013-03-06 05:35:00,
2013-03-05 22:40:00,25.6,20.0,30.32,NW,324,0.0,0.0,79,0.00,,,0.04,WUHU216DAVISVP2,2013-03-06 05:40:00,
2013-03-05 22:45:00,25.7,20.1,30.32,NW,324,0.0,0.0,79,0.00,,,0.04,WUHU216DAVISVP2,2013-03-06 05:45:00,
2013-03-05 22:50:00,25.8,20.2,30.32,NW,324,0.0,0.0,79,0.00,,,0.04,WUHU216DAVISVP2,2013-03-06 05:50:00,
2013-03-05 22:55:00,25.8,20.2,30.32,NW,324,0.0,0.0,79,0.00,,,0.04,WUHU216DAVISVP2,2013-03-06 05:55:00,
2013-03-05 23:00:00,25.8,20.2,30.32,NW,324,0.0,0.0,79,0.00,,,0.04,WUHU216DAVISVP2,2013-03-06 06:00:00,
2013-03-05 23:05:00,25.7,20.1,30.31,NW,324,0.0,0.0,79,0.00,,,0.04,WUHU216DAVISVP2,2013-03-06 06:05:00,
2013-03-05 23:10:00,25.6,20.0,30.32,NW,324,0.0,0.0,79,0.00,,,0.04,WUHU216DAVISVP2,2013-03-06 06:10:00,
2013-03-05 23:15:00,25.4,20.1,30.31,NW,324,0.0,0.0,80,0.00,,,0.04,WUHU216DAVISVP2,2013-03-06 06:15:00,
2013-03-05 23:20:00,25.4,20.1,30.31,NW,324,0.0,0.0,80,0.00,,,0.04,WUHU216DAVISVP2,2013-03-06 06:20:00,
2013-03-05 23:25:00,25.2,19.9,30.31,NW,324,0.0,0.0,80,0.00,,,0.04,WUHU216DAVISVP2,2013-03-06 06:25:00,
2013-03-05 23:30:00,25.1,19.8,30.31,NW,324,0.0,0.0,80,0.00,,,0.04,WUHU216DAVISVP2,2013-03-06 06:30:00,
2013-03-05 23:35:00,25.0,19.7,30.31,NW,324,0.0,0.0,80,0.00,,,0.04,WUHU216DAVISVP2,2013-03-06 06:35:00,
2013-03-05 23:40:00,24.8,19.8,30.31,NW,324,0.0,0.0,81,0.00,,,0.04,WUHU216DAVISVP2,2013-03-06 06:40:00,
2013-03-05 23:45:00,24.8,19.8,30.30,NW,324,0.0,0.0,81,0.00,,,0.04,WUHU216DAVISVP2,2013-03-06 06:45:00,
2013-03-05 23:50:00,24.6,19.6,30.30,NW,324,0.0,0.0,81,0.00,,,0.04,WUHU216DAVISVP2,2013-03-06 06:50:00,
2013-03-05 23:55:00,24.3,19.3,30.30,NW,324,0.0,0.0,81,0.00,,,0.04,WUHU216DAVISVP2,2013-03-06 06:55:00,